Home   Weather   Dornbirn   Past weeks

Flag for Austria Past Weather in Dornbirn, Vorarlberg, Austria — Yesterday and Last 2 Weeks

Now
39 °F

Overcast.


Feels Like: 39 °F
Forecast: 34 / 58 °F
Wind: 1 mph from Southeast

Location: Bregenz

Current Time: Apr 23, 2017 at 7:31:01 am

Latest Report: Apr 23, 2017 at 7:00 am


Visibility: 11 mi

Pressure: 30.27 "Hg

Humidity: 93%

Dew Point: 37 °F

Location of DornbirnLocation

Past Weather in Dornbirn — Graph

°F

Dornbirn Temperature Yesterday

Maximum temperature yesterday: 58 °F (at 3:00 pm)
Minimum temperature yesterday: 37 °F (at 7:00 am)
Average temperature yesterday: 47 °F

High & Low Weather Summary for the Past Weeks

 TemperatureHumidityPressure
High73 °F (Apr 9, 6:00 pm)97% (Apr 19, 3:00 am)30.58 "Hg (Apr 19, 3:00 am)
Low29 °F (Apr 20, 6:00 am)13% (Apr 21, 6:00 pm)29.92 "Hg (Apr 13, 7:00 pm)
Average48 °F67%30.21 "Hg
* Reported Apr 8 6:00 am — Apr 23 6:00 am, Dornbirn, Weather by CustomWeather, © 2017

Note: Actual official high and low records may vary slightly from our data, if they occured in-between our weather recording intervals... More about our weather records

Advertising

Dornbirn Weather History for the Previous 24 Hours

Scroll right to see more
 ConditionsComfort  
Time TempWeatherWind HumidityBarometerVisibility
6:00 am
Sun, Apr 23
39 °FChilly.1 mph91%30.26 "HgN/A
5:00 am40 °FQuite cool.1 mph83%30.26 "HgN/A
4:00 am40 °FQuite cool.2 mph78%30.26 "HgN/A
3:00 am40 °FFog.5 mph85%30.27 "HgN/A
2:00 am41 °FQuite cool.1 mph86%30.29 "HgN/A
1:00 am44 °FFog.5 mph77%30.26 "HgN/A
12:00 am46 °FFog.5 mph86%30.23 "HgN/A
11:00 pm
Sat, Apr 22
46 °FCool.2 mph90%30.23 "HgN/A
10:00 pm47 °FFog.3 mph85%30.21 "HgN/A
9:00 pm47 °FFog.3 mph84%30.21 "HgN/A
8:00 pm48 °FCool.2 mph87%30.20 "HgN/A
7:00 pm51 °FSprinkles. Cloudy.1 mph73%30.18 "HgN/A
6:00 pm55 °FFog.2 mph55%30.17 "HgN/A
5:00 pm56 °FRefreshingly cool.3 mph46%30.18 "HgN/A
4:00 pm57 °FRefreshingly cool.3 mph45%30.19 "HgN/A
3:00 pm58 °FRefreshingly cool.2 mph42%30.19 "HgN/A
2:00 pm58 °FScattered clouds.1 mph41%30.21 "Hg12 mi
1:00 pm55 °FCool.1 mph48%30.25 "HgN/A
12:00 pm52 °FCool.2 mph45%30.28 "HgN/A
11:00 am51 °FPassing clouds.2 mph53%30.29 "Hg12 mi
10:00 am48 °FCool.1 mph49%30.30 "HgN/A
9:00 am46 °FCool.1 mph53%30.32 "HgN/A
8:00 am39 °FSunny.3 mph67%30.34 "Hg16 mi
7:00 am37 °FSunny.2 mph75%30.34 "Hg16 mi
Weather by CustomWeather, © 2017

See weather overviewHow to use our weather pages